Regional Weather Roundup
Issued by NWS

Home | Current Version | Previous Version | Graphics & Text | Print | Product List | Glossary On
Versions: 1 2 3 4 5 6 7 8 9 10 11 12 13 14 15 16 17 18 19 20 21 22 23 24 25 26 27 28 29 30 31 32 33 34 35 36 37 38 39 40 41 42 43 44 45 46 47 48 49
000
ASUS43 KDMX 291107
RWRIA

WEATHER ROUNDUP FOR IOWA
NATIONAL WEATHER SERVICE DES MOINES IA
500 AM CST MON DEC 29 2014

NOTE: "FAIR" INDICATES FEW OR NO CLOUDS BELOW 12,000 FEET WITH NO
SIGNIFICANT WEATHER AND/OR OBSTRUCTIONS TO VISIBILITY.

* - THESE STATIONS ARE NOT NWS STATIONS...THUS NOT UNDER NWS
QUALITY CONTROL.  THEY ALSO DO NOT REPORT WEATHER SUCH
AS PRECIPITATION OR FOG.

IAZ001>003-012>014-020>022-031>034-043>046-291200-
   NORTHWEST IOWA

CITY           SKY/WX    TMP DP  RH WIND       PRES   REMARKS
CARROLL *      CLOUDY    21  18  86 NE14      30.30R WCI   8
CHEROKEE *     LGT SNOW  18  16  93 NE9       30.33S WCI   6
DENISON *      CLOUDY    21  19  93 NE13G21   30.27S WCI   9
LE MARS *      FLURRIES  16  14  93 NE12      30.34S WCI   3
ORANGE CITY *  FLURRIES  16  12  86 NE7       30.33S WCI   6
SHELDON *      LGT SNOW  14  10  85 NE14      30.33S WCI  -1
SIOUX CITY     MOCLDY    19  14  81 NE13      30.33R WCI   6
SPENCER        FLURRIES  16  11  80 NE16      30.35R WCI   1
STORM LAKE *   FLURRIES  16  14  93 NE16G22   30.31S WCI   0
$$

IAZ055>058-069>071-079>083-090>094-291200-
   SOUTHWEST IOWA

CITY           SKY/WX    TMP DP  RH WIND       PRES   REMARKS
ATLANTIC *     CLOUDY    25  23  93 NE10      30.26R WCI  15
AUDUBON *      CLEAR     19  14  79 N9        30.27R WCI   9
CLARINDA *     CLOUDY    27  25  93 N7        30.26R WCI  19
COUNCIL BLFS * CLOUDY    21  21 100 N13       30.24R WCI   9
CRESTON *      CLOUDY    25  25 100 NE9       30.24R FOG     WCI  15
HARLAN  *      CLOUDY    19  19 100 NE12      30.30S WCI   7
LAMONI         CLOUDY    25  22  88 N3        30.22S
RED OAK *      MOCLDY    25  25 100 NE12      30.24S WCI  14
SHENANDOAH *   CLOUDY    27  25  93 NE9       30.25R WCI  17
$$

IAZ047>049-059>061-072>074-084-291200-
   CENTRAL IOWA

CITY           SKY/WX    TMP DP  RH WIND       PRES   REMARKS
AMES           CLOUDY    23  19  85 N10       30.29S WCI  12
ANKENY *       CLOUDY    23  21  93 NE9       30.29R WCI  13
CHARITON *     CLOUDY    25  21  86 NE5       30.24R WCI  19
DES MOINES     CLOUDY    26  22  84 NE8       30.27S WCI  18
GRINNELL*      CLOUDY    27  23  86 NE10      30.27S WCI  17
KNOXVILLE *    MOCLDY    27  19  74 NE8       30.25R WCI  18
MARSHALLTOWN   CLOUDY    23  20  88 NE9       30.28S WCI  13
PELLA *        MOCLDY    27  21  80 NE3       30.29R
PERRY *        CLOUDY    23  21  93 NE9       30.29R WCI  13
$$

IAZ004>006-015-016-023>025-035-036-291200-
   NORTH CENTRAL IOWA

CITY           SKY/WX    TMP DP  RH WIND       PRES   REMARKS
ALGONA *       LGT SNOW  16  14  93 N15       30.35R WCI   1
CLARION *      LGT SNOW  18  16  93 NE15      30.32R WCI   3
ESTHERVILLE    CLOUDY    12   9  87 N12       30.36R WCI  -2
FORT DODGE *   MOCLDY    18  10  73 N7        30.33R WCI   8
MASON CITY     CLOUDY    15  11  83 N10       30.34S WCI   2
FOREST CITY *  PTCLDY    18  12  79 N7        30.34R WCI   8
IOWA FALLS *   FLURRIES  19  16  86 NE10      30.31R WCI   8
$$

IAZ007>011-017>019-026>030-037>042-050>054-066-291200-
   NORTHEAST IOWA

CITY           SKY/WX    TMP DP  RH WIND       PRES   REMARKS
CEDAR RAPIDS   CLOUDY    26  21  81 NE7       30.27S WCI  18
CHARLES CITY * CLOUDY    18  14  86 N12       30.33S WCI   5
CLINTON *      MOCLDY    27  19  74 NE8       30.31R WCI  18
DECORAH *      CLOUDY    18  12  79 N8        30.32S WCI   7
DUBUQUE        CLOUDY    23  18  81 NE12      30.29R WCI  12
MONTICELLO *   LGT SNOW  25  25 100 NE7       30.30R WCI  17
OELWEIN *      LGT SNOW  21  18  86 NE13      30.30S WCI   9
WATERLOO       LGT SNOW  21  18  88 NE10      30.31S FOG     WCI  10
$$

IAZ064-065-067-068-078-291200-
   EAST CENTRAL IOWA

CITY           SKY/WX    TMP DP  RH WIND       PRES   REMARKS
DAVENPORT      PTCLDY    23  17  78 NE6       30.28S WCI  16
IOWA CITY      CLOUDY    26  20  77 NE8       30.30S WCI  18
MT. PLEASANT * PTCLDY    23  19  86 N7        30.27S WCI  15
MUSCATINE *    CLOUDY    25  19  80 NE3       30.29S
QUAD CITIES    CLOUDY    23  19  85 CALM      30.28S
$$

IAZ062-063-075>077-085>089-095>099-291200-
   SOUTHEAST IOWA

CITY           SKY/WX    TMP DP  RH WIND       PRES   REMARKS
BURLINGTON     CLOUDY    26  22  84 NE3       30.26R
FAIRFIELD *    MOCLDY    23  18  80 NE8       30.26F WCI  14
FORT MADISON * CLOUDY    27  23  86 CALM      30.26S
KEOKUK *       CLOUDY    21  21 100 E5        30.25S WCI  15
OSKALOOSA *    CLOUDY    27  21  80 NE7       30.27R WCI  19
CENTERVILLE *  CLOUDY    25  23  93 CALM      30.25R
OTTUMWA        CLOUDY    26  20  77 NE7       30.26S WCI  18
WASHINGTON *   MOCLDY    25  23  93 NE7       30.28R WCI  17
$$

ABBREVIATIONS USED IN REMARKS
   TC - TEMPERATURES IN CELSIUS
  WCI - WIND CHILL INDEX
   HX - HEAT INDEX
  VSB - VISIBILITY
$$



USA.gov is the U.S. government's official web portal to all federal, state and local government web resources and services.